340P/Boattini (2016)

Japanese version
Home page
Updated on November 14, 2016

---------------------------------------------------------------------

* Profile

Designation 340P/2016 N2
Recovery Date July 4, 2016
Magnitude 20.4 mag
Recoverer R. Weryk (Pan-STARRS1 telescope at Haleakala)

* Pictures

* Orbital Elements

Epoch 2016 Nov. 28.0 TT = JDT 2457720.5
T 2016 Nov. 18.49059 TT                                 MPCW
q   3.0630249            (2000.0)            P               Q
n   0.11245575     Peri.   35.75542     +0.84331744     +0.53635924
a   4.2509071      Node   291.77477     -0.50111601     +0.76216646
e   0.2794421      Incl.    2.07856     -0.19416089     +0.36252042
P   8.76
From 263 observations 2006 May 25-2016 Oct. 30, mean residual 0".7.

* Magnitudes Graph

        m1 = 7.5 + 5 log d + 20.0 log r

        * Gray curve is:  m1 = 6.0 + 5 log d + 20.0 log r

---------------------------------------------------------------------

The orbital elements are published on M.P.E.C. 2016-V116.
The magnitudes graphs are made with Comet for Windows.

---------------------------------------------------------------------

Copyright(C) Seiichi Yoshida (comet@aerith.net). All rights reserved.